Time,TemperatureF,DewpointF,PressureIn,WindDirection,WindDirectionDegrees,WindSpeedMPH,WindSpeedGustMPH,Humidity,HourlyPrecipIn,Conditions,Clouds,dailyrainin,SoftwareType,DateUTC
2013-09-10 00:11:00,65.1,62.0,30.23,NNE,17,0.0,0.0,90,0.00,,,0.00,weatherlink.com 1.10,2013-09-10 04:11:00,
2013-09-10 00:26:00,65.2,61.0,30.22,NNE,17,0.0,0.0,87,0.00,,,0.00,weatherlink.com 1.10,2013-09-10 04:26:00,
2013-09-10 00:41:00,65.2,62.0,30.22,NNE,18,0.0,0.0,88,0.00,,,0.00,weatherlink.com 1.10,2013-09-10 04:41:00,
2013-09-10 00:56:00,65.0,62.0,30.23,NNE,18,0.0,0.0,89,0.00,,,0.00,weatherlink.com 1.10,2013-09-10 04:56:00,
2013-09-10 01:11:00,64.5,62.0,30.23,NNE,18,0.0,0.0,90,0.00,,,0.00,weatherlink.com 1.10,2013-09-10 05:11:00,
2013-09-10 01:26:00,64.2,61.0,30.24,NNE,18,0.0,0.0,88,0.00,,,0.00,weatherlink.com 1.10,2013-09-10 05:26:00,
2013-09-10 01:41:00,63.8,61.0,30.23,NNE,17,0.0,0.0,89,0.00,,,0.00,weatherlink.com 1.10,2013-09-10 05:41:00,
2013-09-10 01:56:00,63.3,60.0,30.24,NNE,17,0.0,0.0,89,0.00,,,0.00,weatherlink.com 1.10,2013-09-10 05:56:00,
2013-09-10 02:12:00,63.1,59.0,30.24,NNE,17,0.0,0.0,87,0.00,,,0.00,weatherlink.com 1.10,2013-09-10 06:12:00,
2013-09-10 02:27:00,64.2,59.0,30.24,NNE,18,0.0,0.0,84,0.00,,,0.00,weatherlink.com 1.10,2013-09-10 06:27:00,
2013-09-10 02:42:00,64.5,60.0,30.24,NNE,18,0.0,0.0,84,0.00,,,0.00,weatherlink.com 1.10,2013-09-10 06:42:00,
2013-09-10 02:57:00,64.5,60.0,30.24,NNE,17,0.0,0.0,86,0.00,,,0.00,weatherlink.com 1.10,2013-09-10 06:57:00,
2013-09-10 03:13:00,63.4,61.0,30.25,NE,50,0.0,0.0,90,0.00,,,0.00,weatherlink.com 1.10,2013-09-10 07:13:00,
2013-09-10 03:27:00,62.9,60.0,30.25,NE,50,0.0,0.0,90,0.00,,,0.00,weatherlink.com 1.10,2013-09-10 07:27:00,
2013-09-10 03:42:00,62.3,59.0,30.24,NE,51,0.0,0.0,90,0.00,,,0.00,weatherlink.com 1.10,2013-09-10 07:42:00,
2013-09-10 03:57:00,62.3,59.0,30.24,NE,51,0.0,0.0,88,0.00,,,0.00,weatherlink.com 1.10,2013-09-10 07:57:00,
2013-09-10 04:12:00,62.6,58.0,30.24,NE,51,0.0,0.0,86,0.00,,,0.00,weatherlink.com 1.10,2013-09-10 08:12:00,
2013-09-10 04:27:00,62.1,59.0,30.25,NE,51,0.0,0.0,88,0.00,,,0.00,weatherlink.com 1.10,2013-09-10 08:27:00,
2013-09-10 04:42:00,61.8,58.0,30.25,NE,51,0.0,0.0,88,0.00,,,0.00,weatherlink.com 1.10,2013-09-10 08:42:00,
2013-09-10 04:57:00,62.2,58.0,30.25,NE,51,0.0,0.0,85,0.00,,,0.00,weatherlink.com 1.10,2013-09-10 08:57:00,
2013-09-10 05:12:00,62.1,58.0,30.25,NE,51,0.0,0.0,85,0.00,,,0.00,weatherlink.com 1.10,2013-09-10 09:12:00,
2013-09-10 05:27:00,61.8,58.0,30.25,NE,51,0.0,0.0,86,0.00,,,0.00,weatherlink.com 1.10,2013-09-10 09:27:00,
2013-09-10 05:42:00,61.8,57.0,30.25,NE,51,0.0,0.0,85,0.00,,,0.00,weatherlink.com 1.10,2013-09-10 09:42:00,
2013-09-10 05:57:00,61.5,57.0,30.26,NE,51,0.0,0.0,85,0.00,,,0.00,weatherlink.com 1.10,2013-09-10 09:57:00,
2013-09-10 06:12:00,61.2,57.0,30.26,NE,51,0.0,0.0,86,0.00,,,0.00,weatherlink.com 1.10,2013-09-10 10:12:00,
2013-09-10 06:27:00,60.9,57.0,30.27,NE,51,0.0,0.0,86,0.00,,,0.00,weatherlink.com 1.10,2013-09-10 10:27:00,
2013-09-10 06:42:00,61.4,57.0,30.27,NE,51,0.0,0.0,84,0.00,,,0.00,weatherlink.com 1.10,2013-09-10 10:42:00,
2013-09-10 06:57:00,61.1,56.0,30.27,NE,51,0.0,0.0,84,0.00,,,0.00,weatherlink.com 1.10,2013-09-10 10:57:00,
2013-09-10 07:12:00,61.7,57.0,30.28,NE,51,0.0,0.0,84,0.00,,,0.00,weatherlink.com 1.10,2013-09-10 11:12:00,
2013-09-10 07:27:00,60.7,56.0,30.28,NE,51,0.0,0.0,85,0.00,,,0.00,weatherlink.com 1.10,2013-09-10 11:27:00,
2013-09-10 07:42:00,60.2,56.0,30.29,NE,51,0.0,0.0,87,0.00,,,0.00,weatherlink.com 1.10,2013-09-10 11:42:00,
2013-09-10 07:57:00,60.3,56.0,30.29,NE,51,0.0,0.0,85,0.00,,,0.00,weatherlink.com 1.10,2013-09-10 11:57:00,
2013-09-10 08:12:00,60.8,56.0,30.29,NE,51,0.0,0.0,84,0.00,,,0.00,weatherlink.com 1.10,2013-09-10 12:12:00,
2013-09-10 08:27:00,60.9,56.0,30.30,NE,51,0.0,0.0,84,0.00,,,0.00,weatherlink.com 1.10,2013-09-10 12:27:00,
2013-09-10 08:42:00,61.3,57.0,30.30,NE,51,0.0,0.0,84,0.00,,,0.00,weatherlink.com 1.10,2013-09-10 12:42:00,
2013-09-10 08:57:00,61.8,57.0,30.30,NE,51,0.0,0.0,84,0.00,,,0.00,weatherlink.com 1.10,2013-09-10 12:57:00,
2013-09-10 09:12:00,62.7,58.0,30.30,NE,51,0.0,0.0,84,0.00,,,0.00,weatherlink.com 1.10,2013-09-10 13:12:00,
2013-09-10 09:27:00,63.4,59.0,30.31,NE,50,0.0,0.0,84,0.00,,,0.00,weatherlink.com 1.10,2013-09-10 13:27:00,
2013-09-10 09:42:00,64.6,60.0,30.31,NE,50,0.0,0.0,84,0.00,,,0.00,weatherlink.com 1.10,2013-09-10 13:42:00,
2013-09-10 09:57:00,66.3,61.0,30.32,NE,50,0.0,0.0,84,0.00,,,0.00,weatherlink.com 1.10,2013-09-10 13:57:00,
2013-09-10 10:12:00,68.0,65.0,30.32,NE,50,0.0,0.0,90,0.00,,,0.00,weatherlink.com 1.10,2013-09-10 14:12:00,
2013-09-10 10:27:00,69.6,67.0,30.32,NE,50,0.0,0.0,91,0.00,,,0.00,weatherlink.com 1.10,2013-09-10 14:27:00,
2013-09-10 10:42:00,71.0,67.0,30.32,NE,49,0.0,0.0,88,0.00,,,0.00,weatherlink.com 1.10,2013-09-10 14:42:00,
2013-09-10 10:58:00,72.2,69.0,30.32,NNE,28,0.0,0.0,88,0.00,,,0.00,weatherlink.com 1.10,2013-09-10 14:58:00,
2013-09-10 11:13:00,73.5,69.0,30.31,North,354,0.0,0.0,86,0.00,,,0.00,weatherlink.com 1.10,2013-09-10 15:13:00,
2013-09-10 11:28:00,74.9,70.0,30.31,NE,48,0.0,0.0,84,0.00,,,0.00,weatherlink.com 1.10,2013-09-10 15:28:00,
2013-09-10 11:43:00,76.6,70.0,30.30,West,276,0.0,0.0,80,0.00,,,0.00,weatherlink.com 1.10,2013-09-10 15:43:00,
2013-09-10 11:58:00,77.5,70.0,30.30,WNW,286,0.0,0.0,78,0.00,,,0.00,weatherlink.com 1.10,2013-09-10 15:58:00,
2013-09-10 12:13:00,77.5,71.0,30.30,North,1,0.0,0.0,79,0.00,,,0.00,weatherlink.com 1.10,2013-09-10 16:13:00,
2013-09-10 12:28:00,77.9,71.0,30.30,NNW,333,0.0,0.0,78,0.00,,,0.00,weatherlink.com 1.10,2013-09-10 16:28:00,
2013-09-10 12:43:00,78.7,71.0,30.30,SW,214,0.0,0.0,77,0.00,,,0.00,weatherlink.com 1.10,2013-09-10 16:43:00,
2013-09-10 12:58:00,79.6,71.0,30.30,SSW,203,0.0,0.0,76,0.00,,,0.00,weatherlink.com 1.10,2013-09-10 16:58:00,
2013-09-10 13:13:00,81.3,72.0,30.30,SSW,210,0.0,0.0,74,0.00,,,0.00,weatherlink.com 1.10,2013-09-10 17:13:00,
2013-09-10 13:28:00,81.8,72.0,30.29,North,5,0.0,0.0,71,0.00,,,0.00,weatherlink.com 1.10,2013-09-10 17:28:00,
2013-09-10 13:43:00,82.9,70.0,30.29,East,98,0.0,0.0,66,0.00,,,0.00,weatherlink.com 1.10,2013-09-10 17:43:00,
2013-09-10 13:58:00,84.0,71.0,30.29,WNW,297,0.0,0.0,65,0.00,,,0.00,weatherlink.com 1.10,2013-09-10 17:58:00,
2013-09-10 14:13:00,85.7,70.0,30.28,SW,221,0.0,1.0,59,0.00,,,0.00,weatherlink.com 1.10,2013-09-10 18:13:00,
2013-09-10 14:28:00,86.8,71.0,30.28,West,264,0.0,0.0,60,0.00,,,0.00,weatherlink.com 1.10,2013-09-10 18:28:00,
2013-09-10 14:43:00,87.3,71.0,30.27,WNW,291,0.0,0.0,58,0.00,,,0.00,weatherlink.com 1.10,2013-09-10 18:43:00,
2013-09-10 14:58:00,87.6,72.0,30.27,North,354,0.0,0.0,61,0.00,,,0.00,weatherlink.com 1.10,2013-09-10 18:58:00,
2013-09-10 15:13:00,87.4,68.0,30.26,SSW,208,0.0,0.0,53,0.00,,,0.00,weatherlink.com 1.10,2013-09-10 19:13:00,
2013-09-10 15:28:00,87.6,71.0,30.26,SW,221,0.0,0.0,58,0.00,,,0.00,weatherlink.com 1.10,2013-09-10 19:28:00,
2013-09-10 15:43:00,87.5,69.0,30.25,SW,222,0.0,0.0,55,0.00,,,0.00,weatherlink.com 1.10,2013-09-10 19:43:00,
2013-09-10 15:58:00,87.4,70.0,30.25,East,94,0.0,0.0,57,0.00,,,0.00,weatherlink.com 1.10,2013-09-10 19:58:00,
2013-09-10 16:13:00,87.6,71.0,30.24,WNW,287,0.0,0.0,59,0.00,,,0.00,weatherlink.com 1.10,2013-09-10 20:13:00,
2013-09-10 16:28:00,86.3,72.0,30.23,West,260,0.0,0.0,63,0.00,,,0.00,weatherlink.com 1.10,2013-09-10 20:28:00,
2013-09-10 16:43:00,87.0,73.0,30.23,SW,224,0.0,0.0,63,0.00,,,0.00,weatherlink.com 1.10,2013-09-10 20:43:00,
2013-09-10 16:58:00,86.6,72.0,30.23,SSW,212,0.0,0.0,62,0.00,,,0.00,weatherlink.com 1.10,2013-09-10 20:58:00,
2013-09-10 17:13:00,84.6,71.0,30.23,WSW,245,0.0,0.0,64,0.00,,,0.00,weatherlink.com 1.10,2013-09-10 21:13:00,
2013-09-10 17:28:00,83.1,71.0,30.23,SW,215,0.0,0.0,68,0.00,,,0.00,weatherlink.com 1.10,2013-09-10 21:28:00,
2013-09-10 17:43:00,79.9,71.0,30.23,SSW,212,0.0,0.0,73,0.00,,,0.00,weatherlink.com 1.10,2013-09-10 21:43:00,
2013-09-10 17:58:00,79.8,72.0,30.23,West,281,0.0,0.0,76,0.00,,,0.00,weatherlink.com 1.10,2013-09-10 21:58:00,
2013-09-10 18:13:00,81.1,72.0,30.24,WSW,253,0.0,0.0,73,0.00,,,0.00,weatherlink.com 1.10,2013-09-10 22:13:00,
2013-09-10 18:28:00,81.7,71.0,30.24,SW,221,0.0,0.0,70,0.00,,,0.00,weatherlink.com 1.10,2013-09-10 22:28:00,
2013-09-10 18:43:00,80.8,71.0,30.24,SW,228,0.0,0.0,72,0.00,,,0.00,weatherlink.com 1.10,2013-09-10 22:43:00,
2013-09-10 18:58:00,79.9,71.0,30.24,SW,232,0.0,0.0,74,0.00,,,0.00,weatherlink.com 1.10,2013-09-10 22:58:00,
2013-09-10 19:13:00,78.9,70.0,30.24,SW,232,0.0,0.0,75,0.00,,,0.00,weatherlink.com 1.10,2013-09-10 23:13:00,
2013-09-10 19:28:00,77.3,70.0,30.25,SW,232,0.0,0.0,78,0.00,,,0.00,weatherlink.com 1.10,2013-09-10 23:28:00,
2013-09-10 19:43:00,75.6,69.0,30.25,SW,232,0.0,0.0,80,0.00,,,0.00,weatherlink.com 1.10,2013-09-10 23:43:00,
2013-09-10 19:58:00,73.8,69.0,30.25,SW,232,0.0,0.0,84,0.00,,,0.00,weatherlink.com 1.10,2013-09-10 23:58:00,
2013-09-10 20:14:00,72.4,68.0,30.25,SE,131,0.0,0.0,86,0.00,,,0.00,weatherlink.com 1.10,2013-09-11 00:14:00,
2013-09-10 20:29:00,71.1,67.0,30.26,SE,131,0.0,0.0,87,0.00,,,0.00,weatherlink.com 1.10,2013-09-11 00:29:00,
2013-09-10 20:44:00,70.7,67.0,30.27,SE,131,0.0,0.0,88,0.00,,,0.00,weatherlink.com 1.10,2013-09-11 00:44:00,
2013-09-10 20:59:00,70.4,67.0,30.27,SE,131,0.0,0.0,88,0.00,,,0.00,weatherlink.com 1.10,2013-09-11 00:59:00,
2013-09-10 21:14:00,69.9,67.0,30.28,SE,131,0.0,0.0,89,0.00,,,0.00,weatherlink.com 1.10,2013-09-11 01:14:00,
2013-09-10 21:29:00,69.6,66.0,30.29,SE,131,0.0,0.0,89,0.00,,,0.00,weatherlink.com 1.10,2013-09-11 01:29:00,
2013-09-10 21:44:00,68.9,66.0,30.30,SE,131,0.0,0.0,90,0.00,,,0.00,weatherlink.com 1.10,2013-09-11 01:44:00,
2013-09-10 21:59:00,68.4,65.0,30.30,SE,131,0.0,0.0,90,0.00,,,0.00,weatherlink.com 1.10,2013-09-11 01:59:00,
2013-09-10 22:14:00,68.1,65.0,30.30,SE,131,0.0,0.0,90,0.00,,,0.00,weatherlink.com 1.10,2013-09-11 02:14:00,
2013-09-10 22:29:00,67.7,65.0,30.31,SE,131,0.0,0.0,91,0.00,,,0.00,weatherlink.com 1.10,2013-09-11 02:29:00,
2013-09-10 22:44:00,67.1,65.0,30.31,SE,131,0.0,0.0,91,0.00,,,0.00,weatherlink.com 1.10,2013-09-11 02:44:00,
2013-09-10 22:59:00,67.2,65.0,30.31,SE,131,0.0,0.0,91,0.00,,,0.00,weatherlink.com 1.10,2013-09-11 02:59:00,
2013-09-10 23:14:00,66.5,64.0,30.31,SE,131,0.0,0.0,91,0.00,,,0.00,weatherlink.com 1.10,2013-09-11 03:14:00,
2013-09-10 23:29:00,65.9,63.0,30.31,SE,131,0.0,0.0,90,0.00,,,0.00,weatherlink.com 1.10,2013-09-11 03:29:00,
2013-09-10 23:44:00,65.5,63.0,30.31,SE,131,0.0,0.0,90,0.00,,,0.00,weatherlink.com 1.10,2013-09-11 03:44:00,
2013-09-10 23:59:00,65.5,62.0,30.32,SE,131,0.0,0.0,89,0.00,,,0.00,weatherlink.com 1.10,2013-09-11 03:59:00,